This is the latest recevied weather packets stored in our database for station/object OM6ACB-6. If no packets are shown the sender has not sent any weather packets the latest 10 day(s).
| Time | Temp. | Humidity | Pressure | Rain* | Wind** | Luminosity | Snow |
|---|---|---|---|---|---|---|---|
| 1777600877 | 0° C | 32% | 1027.3 hPa | 0 mm | - | - | - |
| 1777600277 | 0° C | 32% | 1027.3 hPa | 0 mm | - | - | - |
| 1777599676 | 0° C | 33% | 1027.4 hPa | 0 mm | - | - | - |
| 1777599076 | 0° C | 33% | 1027.4 hPa | 0 mm | - | - | - |
| 1777598476 | -0.56° C | 33% | 1027.3 hPa | 0 mm | - | - | - |
| 1777597875 | -0.56° C | 33% | 1027.2 hPa | 0 mm | - | - | - |
| 1777597275 | -1.11° C | 33% | 1027.2 hPa | 0 mm | - | - | - |
| 1777596675 | -1.11° C | 33% | 1027.1 hPa | 0 mm | - | - | - |
| 1777596074 | -1.67° C | 33% | 1026.9 hPa | 0 mm | - | - | - |
| 1777595474 | -2.22° C | 33% | 1026.9 hPa | 0 mm | - | - | - |
| 1777594874 | -2.22° C | 33% | 1026.9 hPa | 0 mm | - | - | - |
| 1777594274 | -2.22° C | 33% | 1026.9 hPa | 0 mm | - | - | - |
| 1777593673 | -1.67° C | 33% | 1026.9 hPa | 0 mm | - | - | - |
| 1777593073 | -2.22° C | 33% | 1027 hPa | 0 mm | - | - | - |
| 1777592473 | -1.67° C | 33% | 1027.1 hPa | 0 mm | - | - | - |
| 1777591873 | -1.67° C | 33% | 1027 hPa | 0 mm | - | - | - |
| 1777591272 | -1.67° C | 33% | 1027 hPa | 0 mm | - | - | - |
| 1777590672 | -1.67° C | 33% | 1027.2 hPa | 0 mm | - | - | - |
| 1777590071 | -1.67° C | 33% | 1027.2 hPa | 0 mm | - | - | - |
| 1777589471 | -1.11° C | 33% | 1027.2 hPa | 0 mm | - | - | - |
| 1777588871 | -1.11° C | 33% | 1027.3 hPa | 0 mm | - | - | - |
| 1777588271 | -1.11° C | 33% | 1027.4 hPa | 0 mm | - | - | - |
| 1777587670 | -1.11° C | 33% | 1027.3 hPa | 0 mm | - | - | - |
| 1777587070 | -1.11° C | 33% | 1027.3 hPa | 0 mm | - | - | - |
| 1777586470 | -0.56° C | 33% | 1027.3 hPa | 0 mm | - | - | - |
* Rain latest hour (hover to see other rain measurements)
** Current wind speed in m/s (hover to see current wind gust speed)